Location: Grasslands National Park East Block
(49.0708°N, 106.5295°W)
Time: 16:00:01
(UTC-06:00)

Vanguard 2 Rocket - All Passes

Search period start: 15 September 2019 00:00
Search period end: 25 September 2019 00:00
Orbit: 554 x 3327 km, 32.9° (Epoch: 15 September)

Date Brightness Start Highest point End Pass type
(mag) Time Alt. Az. Time Alt. Az. Time Alt. Az.
15 Sep - 00:27:51 10° SSW 00:30:01 13° S 00:32:33 10° SSE night (unlit)
15 Sep - 23:29:38 10° SSW 23:30:56 11° S 23:32:21 10° SSE night (unlit)
23 Sep - 20:00:55 10° SSW 20:02:19 11° S 20:03:38 10° SSE visible
24 Sep - 19:00:45 10° SSW 19:03:13 12° S 19:05:21 10° SSE daylight
